Погода в Бурмакине

Россия / Ярославская область     57°21′40″N   39°14′22″E
темп.,
°C
ветер,
м/с
пор.,
м/с
влажн.,
%
обл.,
%
осадки,
мм/ч
давл.,
гПа
погр.,
м
25 февраля, чт
чт2500:00−13ю5993100 0.4 1025426
03:00−13ю51095100 2.3 1022381
06:00−11ююз61195100 3.0 1014432
09:00−5ююз4995100 4.3 1011326
12:00+1зсз310100100 0.8 1010289
15:00+2зсз411100100 1.0 1010288
18:00+1зсз41099100 0.1 1011313
21:00+1зсз4997100 0.1 1011323
26 февраля, пт
пт2600:00−1з369699 0.0 1010112
03:00+1юз33100100 0.4 101091
06:00+1зюз35100100 0.5 1007105
09:00+2юз410100100 1.8 1004271
12:00+2юз512100100 2.7 1000328
15:00+2зюз61599100 5.8 998480
18:00+1з71492100 0.1 996759
21:00+1з7139795 0.5 996699
27 февраля, сб
сб2700:000зсз81497100 1.4 995821
03:000зсз71497100 2.9 996779
06:00−3ссз61094100 1.1 996384
09:00−9ссз6109197 1.3 999577
12:00−9с6989100 0.1 1002650
15:00−9с6988100 0.2 1006695
18:00−10с51090100 0.1 1009641
21:00−12с41093100 0.1 1012352
28 февраля, вс
вс2800:00−14ссз389587 0.0 1014205
03:00−15ссз369551 0.0 1016138
06:00−16ссз359514 0.0 1017117
09:00−14ссз379438 0.0 1018280
12:00−10ссз369194 0.0 1019433
15:00−7ссз469097 0.1 1019517
18:00−9ссз339498 0.0 102047
21:00−11сз239678 0.1 102226
1 марта, пн
пн100:00−7ссз1296100 0.1 102343
03:00−7з2396100 0.1 102432
06:00−7зсз3392100 0.1 102441
09:00−7з379469 0.1 1024182
12:00−2з469493 0.0 1024312
15:00−1з599497 0.1 1022458
18:000з61292100 0.0 1021659
21:00+1з71491100 0.0 1019686